sat.trackr.live / text

‹ back to catalog

STARLINK-35749

NORAD 66879 · 2025-283B

PAYLOAD ACTIVE UNKNOWN

§ Identity

Operator
Country
US
Launch date
2025-12-04
Launch site
AFWTR
Launch vehicle
Mass (kg)
RCS (m²)

Purposes: comms

External: N2YO · Heavens-Above · Gunter

§ Orbital elements

Epoch: 2026-09-20T12:39:43.603200Z

Period
93.85 min
Inclination
53.1576°
Eccentricity
0.0000270
Mean motion
15.34396792 rev/d
Perigee alt
462.5 km
Apogee alt
462.9 km
Semi-major
6,840.8 km
B*
5.7330e-4
RAAN
197.8215°
Arg perigee
183.9388°
Mean anomaly
176.1613°
Rev number
4,569

§ Raw data

STARLINK-357491 66879U 25283B   26263.52758800  .00019041  00000+0  57330-3 0  99952 66879  53.1576 197.8215 0000270 183.9388 176.1613 15.34396792 45695

JSON: /api/v1/satellites/66879 · /tle

For live sub-satellite position, see the globe view (requires WebGL).

§ Visibility from observer

Set your observer location to see the next 7 days of passes ≥ 10°. The values pass through the URL so the page stays shareable.

No JS? Fill the form by hand. The geolocation button needs JavaScript.